Regional Weather Roundup
Issued by NWS New Orleans/Baton Rouge, LA

Home | Current Version | Previous Version | Graphics & Text | Print | Product List | Glossary On
Versions: 1 2 3 4 5 6 7 8 9 10 11 12 13 14 15 16 17 18 19 20 21 22 23 24 25 26 27 28 29 30 31 32 33 34 35 36 37 38 39 40 41 42 43 44 45 46 47 48 49 50
227
ASUS44 KLIX 260505
RWRLIX
NEW ORLEANS REGIONAL WEATHER ROUNDUP
NATIONAL WEATHER SERVICE NEW ORLEANS LA
1100 PM CST SUN JAN 25 2015

NOTE: "FAIR" INDICATES FEW OR NO CLOUDS BELOW 12,000 FEET WITH NO
      SIGNIFICANT WEATHER AND/OR OBSTRUCTIONS TO VISIBILITY.
      SKY/WX - SKY CONDITION AND SIGNIFICANT WEATHER.
      TMP - AIR TEMPERATURE.     DP    - DEWPOINT TEMPERATURE.
      RH  - RELATIVE HUMIDITY.   PRES  - PRESSURE.
      HI  - HEAT INDEX.          WCI   - WIND CHILL INDEX.

*  THESE STATIONS ARE NOT NWS OR FAA STATIONS AND ARE NOT UNDER
   NWS QUALITY CONTROL.

LAZ038-040-048-061>063-065>067-069-260600-
SOUTHEAST LOUISIANA

CITY           SKY/WX    TMP DP  RH WIND       PRES   REMARKS
N.O. AUDUBON     N/A     52  48  85 MISG        N/A
N.O. INTL ARPT PTCLDY    52  43  71 W12       29.99R
N.O. LAKEFRONT CLEAR     56  46  69 W17       29.98R
N.O. DOWNTOWN*   N/A    N/A N/A N/A W6        29.99R
SLIDELL        CLEAR     53  42  66 VRB5      29.96R
BATON ROUGE    CLEAR     54  32  43 W8        30.00R
BOOTHVILLE     PTCLDY    55  48  77 W12       29.98R
BELLE CHASSE   CLEAR     53  43  68 W7        29.99R
BOGALUSA*        N/A     46  38  74 CALM      29.97R
GALLIANO*      CLEAR     55  47  74 MISG      30.01R
NEW ROADS*       N/A     54  33  44 W12       30.01R
GONZALES*        N/A     57  36  45 NW7       30.00R
HAMMOND*       CLEAR     50  37  62 W5        29.99R
HOUMA*         CLEAR     52  46  82 W6        30.01R
PORT FOURCHON* CLEAR     57  50  77 W16G23    30.04R

$$

MSZ070-080>082-260600-
SOUTHERN MISSISSIPPI

CITY           SKY/WX    TMP DP  RH WIND       PRES   REMARKS
MCCOMB         CLEAR     53  34  48 NW10      29.95R
GULFPORT       CLEAR     54  41  61 W7        29.93R
BILOXI         CLEAR     53  43  70 VRB5      29.93R
PASCAGOULA     CLEAR     52  40  63 W6        29.92R

$$

COASTAL OBSERVATIONS
LAKE AND NEARSHORE STATIONS

STATION/POSITION TIME  TEMP    WIND        PRES    WAVE
                       AIR SEA DIR/SP/G            HT/PER
                 (UTC) (F)     (DEG/KT/KT) (MB)    (FT/S)
PASCAGOULA       0500   55     270/  9/ 13 1012.7
WAVELAND YACHT   0500   55     290/  7/  9 1013.1
GRAND ISLE       0500   58 58  290/ 19/ 23 1015.9
SOUTHWEST PASS   0500   59 47  310/ 17/ 27 1015.6
NEW CANAL        0500   56 52  260/ 10/ 14 1015.5
SHELL BEACH      0500   53 53  250/ 11/ 14 1014.7

OFFSHORE STATIONS

STATION/POSITION TIME  TEMP    WIND        PRES    WAVE
                       AIR SEA DIR/SP/G            HT/PER
                 (UTC) (F)     (DEG/KT/KT) (MB)    (FT/S)
64 S DAUPHIN ISL 0442   63 71  280/ 31/ 39 1013.4   10/ 7

$$




USA.gov is the U.S. government's official web portal to all federal, state and local government web resources and services.